Location: Boudouguen
(48.3327°N, 4.1403°W)
Time: 20:02:09
(UTC+00:00)

Daily predictions for brighter satellites

Satellite Brightness Start Highest point End
(mag) Time Altitude Azimuth Time Altitude Azimuth Time Altitude Azimuth
Meteor 2-10 Rocket 3.8 19:38:08 10° S 19:43:11 52° E 19:48:29 10° NNE
SL-8 R/B 3.8 19:38:47 10° W 19:43:39 82° SSW 19:48:29 10° ESE
BREEZE-M DEB (TANK) 3.7 19:40:56 10° SW 19:43:44 51° SE 19:50:06 10° ENE
Cosmos 2026 Rocket 4.3 19:42:43 10° N 19:48:34 46° ENE 19:54:25 10° SSE
Cosmos 405 3.4 19:46:06 10° SSE 19:49:19 38° E 19:52:36 10° NNE
OBJECT-B 0.9 19:47:41 10° SSE 19:50:50 59° ENE 19:54:02 10° N
IRS-1A Rocket 4.5 19:46:01 10° SE 19:51:27 57° ENE 19:57:01 10° N
SL-27 R/B 4.1 19:49:39 10° SW 19:52:57 39° WNW 19:56:15 10° N
BREEZE-M DEB (TANK) 3.6 19:49:19 10° SW 19:53:07 78° SSE 20:06:19 10° ENE
CZ-4 R/B 4.1 19:50:20 10° SW 19:53:40 22° W 19:56:59 10° NW
NOSS 3-4 (A) 3.4 19:48:05 10° SW 19:53:57 90° ESE 20:00:20 10° NE
NOSS 3-4 (C) 3.4 19:48:13 10° SW 19:54:04 89° SE 20:00:26 10° NE
Cosmos 1892 2.6 19:51:30 10° N 19:55:17 82° ENE 19:59:05 10° SSE
Cosmos 1606 Rocket 3.7 19:54:51 10° S 19:59:13 83° WNW 20:03:35 10° N
Cosmos 2322 Rocket 4.2 19:54:50 10° NW 19:59:40 29° WSW 20:04:28 10° SSW
Cosmos 2098 Rocket 4.4 19:52:40 10° N 19:59:41 75° E 20:07:07 10° SSE
Cosmos 2251 Rocket 4.2 19:56:50 10° SSE 20:01:38 34° ESE 20:06:25 10° NE
Cosmos 389 Rocket 4.2 20:00:14 11° ESE 20:02:06 15° E 20:04:15 10° NE
Cosmos 2333 Rocket 2.3 19:58:28 10° NNW 20:04:16 89° WSW 20:10:01 10° SSE
Cosmos 2297 Rocket 3.7 20:02:22 10° SE 20:05:21 15° E 20:08:21 10° ENE
BREEZE-M DEB (TANK) 1.8 20:03:30 10° W 20:06:14 67° N 20:08:16 12° E
Cosmos 1634 Rocket 4.2 20:00:34 10° SSE 20:06:37 53° E 20:12:39 10° NNE
ATLAS 2AS CENTAUR R/B 3.0 19:59:41 10° SSW 20:07:34 77° SE 20:15:21 10° NE
Cosmos 1825 2.4 20:04:20 10° N 20:08:02 52° ENE 20:11:44 10° SSE
SPOT 3 Rocket 4.2 20:03:49 10° SE 20:08:38 40° ENE 20:13:28 10° N
NOSS 7 (H) 4.1 20:05:18 10° SW 20:08:42 79° SE 20:11:39 10° NE
Helios 1A Rocket 4.5 20:05:44 10° SSW 20:09:30 37° W 20:13:21 10° NNW
Cosmos 1726 Rocket 3.7 20:05:19 10° S 20:09:42 82° W 20:14:05 10° N
ARIANE 5 R/B 4.4 20:09:20 11° E 20:11:57 17° ENE 20:14:50 10° NNE
Ariane Rocket 3.0 20:08:58 10° SSE 20:14:00 80° ENE 20:19:05 10° NNW
Cosmos 2322 3.9 20:09:32 10° NNW 20:15:12 72° WSW 20:20:49 10° SSE
Cosmos 2228 4.2 20:11:37 10° SSW 20:15:50 48° WNW 20:20:02 10° N
Cosmos 1408 2.7 20:12:32 10° NNW 20:16:06 73° W 20:19:38 10° S
Orbus 7S? 3.1 20:15:50 10° SSW 20:18:31 53° SE 20:23:16 10° ENE
CZ-4C R/B 3.4 20:14:58 10° WSW 20:19:55 45° NW 20:25:55 10° NE
RESURS DK-1 2.5 20:17:15 10° S 20:21:15 51° ESE 20:25:17 10° NE
Landsat 7 4.4 20:20:38 15° SE 20:24:15 41° ENE 20:28:44 10° N
NOSS 7 (E) 4.3 20:23:33 10° SSW 20:27:21 73° SE 20:30:29 10° NE
Meteor 2-1 Rocket 4.3 20:22:19 10° S 20:28:03 63° E 20:33:55 10° NNE
Cosmos 2058 2.9 20:24:55 10° N 20:29:09 85° E 20:33:19 10° S
Cosmos 482 Debris 3.8 20:30:13 10° W 20:32:38 45° NNW 20:33:56 17° NE
SL-16 R/B 3.7 20:29:39 10° N 20:34:10 23° NE 20:37:53 13° E
USA 186 4.2 20:32:05 10° SSW 20:34:41 22° W 20:37:14 10° NW
Cosmos 2058 Rocket 3.3 20:31:31 10° SSW 20:35:52 72° W 20:40:14 10° N
Cosmos 1980 4.0 20:30:22 10° NNW 20:35:56 52° NE 20:39:44 20° SE
COSMOS 2487 3.5 20:32:50 10° SW 20:36:08 48° WNW 20:39:27 10° NNE
Cosmos 614 Rocket 4.2 20:31:19 10° S 20:36:13 47° ESE 20:41:07 10° NNE
Cosmos 1992 Rocket 4.4 20:31:37 10° NNW 20:36:47 63° WSW 20:41:54 10° S
BREEZE-M DEB (TANK) 3.7 20:33:23 10° WSW 20:37:23 89° SSE 20:52:05 10° ENE
Cosmos 2360 Rocket 4.3 20:36:05 10° NW 20:40:29 24° WSW 20:44:52 10° SSW
Cosmos 2151 3.7 20:39:25 10° N 20:43:27 36° ENE 20:45:17 25° ESE
IRIDIUM 104 4.4 20:40:01 13° SSE 20:44:37 56° E 20:49:44 10° NNE
COSMOS 2428 3.1 20:39:05 10° NNW 20:44:46 63° WSW 20:49:50 13° S
Meteor 2-3 Rocket 4.4 20:39:57 10° N 20:45:22 39° ENE 20:48:26 22° SE
Cosmos 2344 3.4 20:38:27 10° SSW 20:45:54 75° SE 20:53:49 10° NE
Cosmos 1076 Rocket 3.5 20:42:58 10° N 20:47:20 71° ENE 20:50:07 22° SSE
FALCON 9 DEB 3.1 20:44:06 10° SW 20:47:28 57° SSE 20:49:44 19° ENE
ATLAS 3B R/B 2.9 20:40:36 10° NW 20:47:35 74° SW 20:53:12 18° SSE
Cosmos 192 4.4 20:44:33 10° NNW 20:49:32 69° ENE 20:52:27 24° SE
USA 215 3.3 20:45:38 20° ESE 20:50:29 82° NNE 20:57:03 10° NW
Cosmos 1812 Rocket 3.8 20:47:57 20° SSE 20:50:49 49° E 20:55:09 10° NNE
Resurs 01 Rocket 1.7 20:50:18 17° S 20:53:43 82° WSW 20:58:13 10° NNW
IRIDIUM 114 4.3 20:49:08 13° S 20:53:45 68° E 20:58:57 10° N
Cosmos 1818 3.5 20:48:22 10° SSW 20:53:47 76° SE 20:59:16 10° NE
Cosmos 1455 3.4 20:51:16 10° SSW 20:54:50 42° WNW 20:58:26 10° N
Cosmos 44 3.4 20:50:50 10° SW 20:55:58 88° SE 21:01:24 10° NE
Cosmos 407 Rocket 3.9 20:53:35 20° SSE 20:56:33 39° ESE 21:01:20 10° NE
ERS-1 Rocket 3.9 20:54:40 23° ESE 20:56:44 32° ENE 21:01:10 10° N
Cosmos 2219 Rocket 3.2 20:52:24 10° NW 20:57:44 43° WSW 21:02:59 10° S
NOSS 0 Rocket 4.0 20:52:39 10° NNW 20:58:54 82° WSW 21:03:07 22° SSE
Meteor 2-21 4.4 20:55:33 10° N 21:01:36 69° ENE 21:05:28 23° SSE
IRIDIUM 103 4.2 20:58:16 13° S 21:02:53 81° E 21:08:07 10° N
Cosmos 1633 2.6 20:59:42 10° N 21:03:17 58° ENE 21:04:10 43° SE
Cosmos 1356 3.8 21:00:39 10° NNW 21:04:03 61° W 21:05:42 27° S
CARTOSAT-1 4.1 21:04:22 32° ESE 21:05:42 42° ENE 21:09:48 10° N
IGS 5A 3.6 21:04:09 23° S 21:06:40 72° WSW 21:10:50 10° NNW
ATLAS 5 CENTAUR R/B 4.4 21:04:07 10° WNW 21:07:09 18° NNW 21:10:29 10° NNE
Lacrosse 5 rocket 3.4 21:05:17 10° WNW 21:08:50 26° N 21:12:33 10° NE
Cosmos 405 Rocket 3.4 21:06:08 10° NNW 21:10:04 54° W 21:12:30 21° SSW
Cosmos 909 Rocket 4.0 21:05:55 10° SW 21:12:15 89° NW 21:18:47 10° NE
Cosmos 1809 Rocket 4.5 21:10:48 10° NNW 21:16:54 81° W 21:21:10 21° S
COSMOS 2455 4.1 21:18:15 22° E 21:18:15 22° E 21:21:52 10° ENE
SPOT 5 3.2 21:19:30 37° ESE 21:20:40 45° ENE 21:25:12 10° N
Cosmos 1140 Rocket 3.5 21:18:31 29° S 21:20:55 55° ESE 21:25:56 10° NNE
IRIDIUM 106 4.5 21:16:33 13° S 21:21:11 73° W 21:26:26 10° N
Spot 2 Rocket 3.4 21:21:43 36° SSE 21:23:52 79° ENE 21:28:58 10° NNW
Cosmos 2237 Rocket 2.2 21:19:13 10° NNW 21:24:52 79° WSW 21:27:26 34° SSE
CZ-2C R/B 3.6 21:21:25 10° NNE 21:25:53 81° WNW 21:28:54 20° SSW
Cosmos 2279 Rocket 4.3 21:20:47 10° SSW 21:26:55 66° WNW 21:33:06 10° N
Terra 2.4 21:28:59 37° E 21:29:56 41° ENE 21:34:25 10° N
Cosmos 389 Rocket 3.9 21:33:58 16° SW 21:36:25 38° WNW 21:39:47 10° N
Cosmos 2082 4.5 21:39:13 32° E 21:39:13 32° E 21:43:32 10° NE
Cosmos 2227 Rocket 2.1 21:38:45 34° S 21:41:07 62° ESE 21:46:43 10° NNE
SPOT 1/Viking Rocket 3.9 21:38:50 30° S 21:41:21 61° WSW 21:46:33 10° NNW
Meteor 2-8 Rocket 4.5 21:42:18 41° SSE 21:44:15 59° E 21:50:16 10° NNE
ARIANE 5 R/B 2.9 21:46:52 46° SSW 21:47:58 64° WSW 21:52:21 10° NNW
Cosmos 2297 Rocket 2.1 21:43:48 15° SSW 21:48:31 87° ESE 21:54:13 10° NNE
Cosmos 1190 Rocket 3.9 21:47:49 35° SSW 21:50:05 83° ESE 21:55:21 10° NNE
Cosmos 2266 Rocket 4.2 21:44:54 10° NNW 21:51:16 71° W 21:54:23 32° S
Cosmos 2219 3.0 21:47:37 23° SSW 21:51:17 84° ESE 21:56:56 10° NNE
H-2A R/B 4.0 21:50:18 10° NNE 21:53:41 45° ENE 21:53:41 45° ENE
ATLAS 2AS CENTAUR R/B 4.3 21:51:52 10° W 21:59:14 41° NNW 22:06:24 10° NE
Timation 2 Rocket 3.9 21:54:58 16° SSW 22:00:20 83° ESE 22:06:42 10° NNE
Genesis I 3.4 21:56:30 10° NW 22:00:14 67° W 22:00:14 67° W
Cosmos 1763 Rocket 3.7 21:57:29 10° NNW 22:02:27 51° ENE 22:02:58 49° E
BREEZE M DEB (TANK) 4.3 21:59:04 15° SW 22:02:48 60° SE 22:17:46 10° ENE
Cosmos 1862 4.3 21:59:06 10° N 22:02:04 36° NE 22:02:04 36° NE
Cosmos-2242 3.7 22:02:37 38° SW 22:03:56 53° WNW 22:08:10 10° N
Nadezhda 2 Rocket 4.5 21:58:05 10° N 22:04:22 66° ENE 22:05:45 52° SE
Cosmos 1408 Rocket 3.8 22:02:15 10° N 22:06:07 55° NE 22:06:07 55° NE
Cosmos 676 Rocket 3.8 22:07:09 69° SE 22:07:32 72° ESE 22:12:42 10° NNE
CRYOSAT 2 4.3 22:10:15 67° E 22:10:24 68° E 22:15:18 10° N
SL-16 R/B 2.1 22:13:15 10° NNW 22:18:58 81° WSW 22:19:46 66° S
Cosmos 540 Rocket 4.1 22:16:57 10° NNW 22:21:50 42° ENE 22:22:04 42° ENE
Cosmos 1743 Rocket 4.4 22:17:53 10° N 22:21:17 40° NE 22:21:17 40° NE
Meteor 2-15 Rocket 4.3 22:22:07 62° SE 22:22:48 67° E 22:28:49 10° NNE
NOSS 3-1 (C) 4.2 22:18:22 10° NW 22:25:38 68° NE 22:28:42 41° ESE
Cosmos 1244 Rocket 4.4 22:19:23 10° N 22:25:49 85° E 22:27:02 61° SSE
SL-08 ROCKET BODY 4.4 22:21:08 10° N 22:27:13 65° ENE 22:27:52 61° ESE
Cosmos 2221 3.3 22:30:07 44° NNE 22:30:07 44° NNE 22:33:10 10° NNE
SL-08 R/B 4.4 22:24:47 10° N 22:30:58 70° E 22:31:43 63° ESE
USA 215 4.0 22:32:58 35° SSW 22:33:54 36° SW 22:39:52 10° WNW
Cosmos 44 Rocket 4.2 22:36:37 41° ENE 22:36:37 41° ENE 22:40:06 10° NE
ERS-1 Rocket 3.9 22:34:39 36° WSW 22:35:27 38° W 22:40:09 10° NNW
Aureole 1 Rocket 4.4 22:38:07 37° ENE 22:38:07 37° ENE 22:41:25 10° NE
Cosmos 1553 Rocket 3.8 22:39:11 67° ESE 22:39:30 69° E 22:45:34 10° NNE
Cosmos 1500 Rocket 4.1 22:37:13 10° N 22:40:50 55° NNE 22:40:50 55° NNE
Meteor 1-4 Rocket 4.4 22:44:18 28° NW 22:44:18 28° NW 22:46:34 10° N
Cosmos 1943 3.6 22:43:08 10° NNW 22:48:36 49° NE 22:48:59 48° ENE
Lacrosse 5 rocket 3.0 22:45:05 10° NW 22:48:57 32° NNE 22:49:47 29° NE
ALOS 2 4.1 22:49:56 28° NE 22:49:56 28° NE 22:52:57 10° N
Cosmos 1417 Rocket 4.4 22:49:46 69° ESE 22:50:07 71° E 22:56:22 10° NNE
BREEZE M DEB (TANK) 4.4 22:48:27 10° W 22:50:13 19° W 22:50:13 19° W
Cosmos 1850 Rocket 4.4 22:54:08 55° NE 22:54:08 55° NE 22:58:19 10° NNE
Meteor 2-2 Rocket 4.4 23:00:49 64° WSW 23:01:24 68° WNW 23:07:08 10° N
COSMOS 2455 2.9 23:01:18 55° WSW 23:02:37 73° NW 23:08:39 10° NNE
SeaSat 1 2.9 23:00:31 10° NNE 23:04:24 55° NE 23:04:24 55° NE
Terra 3.4 23:07:51 27° W 23:07:51 27° W 23:11:51 10° NW
Cosmos 2237 Rocket 4.4 23:05:34 10° WNW 23:07:57 13° W 23:09:16 12° WSW
Cosmos 2082 4.5 23:21:01 38° W 23:22:30 46° NW 23:27:57 10° NNE
Cosmos 2263 Rocket 2.6 23:24:26 52° NE 23:24:26 52° NE 23:28:44 10° NNE
Cosmos 2227 Rocket 4.0 23:20:46 10° WSW 23:25:35 28° NW 23:30:28 10° NNE
Cosmos 841 Rocket 4.1 23:27:26 10° NNW 23:31:35 50° WNW 23:31:35 50° WNW
USA 229 DEB 3.7 23:25:28 10° NW 23:32:47 83° SW 23:33:33 74° SSE
USA 229 3.7 23:25:34 10° NW 23:32:53 84° SW 23:33:40 73° SSE
Cosmos 1603 3.8 23:27:23 10° NNW 23:32:30 69° NW 23:32:30 69° NW
Cosmos 2297 Rocket 4.4 23:29:02 10° W 23:33:20 22° NW 23:37:40 10° N
Meteor 2-17 Rocket 4.4 23:27:40 10° N 23:33:43 83° NE 23:33:43 83° NE
USA 281 4.0 23:33:03 36° E 23:34:49 43° NE 23:40:57 10° NNW
Cosmos 1814 Rocket 4.5 23:35:18 10° NNW 23:39:37 56° NW 23:39:37 56° NW
Cosmos 1745 Rocket 4.3 23:34:53 10° NNW 23:41:01 53° W 23:41:13 53° W
Cosmos 1709 Rocket 3.9 23:40:40 10° N 23:46:44 78° WNW 23:46:44 78° WNW
NOSS 3-1 (A) 3.9 23:43:11 10° NW 23:50:39 75° SW 23:51:29 69° S
Meteor 1-25 Rocket 4.4 23:45:01 10° NNW 23:50:08 68° NW 23:50:08 68° NW
